Location: Bonningues
(50.7927°N, 2.0150°E)
Time: 05:15:29
(UTC+00:00)

BREEZE-M DEB (TANK) - Pass Details

Date: 08 August 2020
Orbit: 332 x 12043 km, 49.7° (Epoch: 18 September)

Event Time Altitude Azimuth Distance (km) Brightness Sun altitude
Rises 20:18:58 0° 293° (WNW) 5,307 8.9 -8.1°
Reaches altitude 10° 20:24:25 10° 279° (W) 2,954 6.9 -8.8°
Maximum altitude 20:28:35 19° 235° (SW) 1,506 4.5 -9.3°
Drops below altitude 10° 20:30:59 10° 186° (S) 1,585 4.1 -9.6°
Enters shadow 20:31:41 - 176° (S) 1,777 4.3 -9.7°
